RENT44 KADW-KADW

Flight info

Callsign RENT44
Flight time N/A
Altitude 32000
Route LINCN2 RAMAY HACKS RINTE SNKPT GUIDO PHEEB STRUK STL FAM TERGE IIU DACOS GARZO HVQ TRUPS5
Aircraft B742/H-SDFHIRWXY/L

Departure

Time 2026-04-25 19:25
Airport Joint Base Andrews (KADW)

Arrival

Time N/A
Airport Joint Base Andrews (KADW)
Time Latitude Longitude Altitude Speed Heading
2026-04-25 19:16 38.81654 -76.87724 285 ft 0 kts 359°
2026-04-25 19:22 38.81720 -76.87608 285 ft 13 kts 86°
2026-04-25 19:23 38.81728 -76.87495 285 ft 12 kts 69°
2026-04-25 19:23 38.81912 -76.87452 285 ft 18 kts
2026-04-25 19:23 38.82067 -76.87452 285 ft 25 kts 360°
2026-04-25 19:24 38.82258 -76.87446 285 ft 27 kts
2026-04-25 19:24 38.82309 -76.87302 285 ft 18 kts 89°
2026-04-25 19:24 38.82226 -76.87071 285 ft 15 kts 181°
2026-04-25 19:25 38.81253 -76.87068 288 ft 143 kts 179°
2026-04-25 19:25 38.80117 -76.87103 680 ft 175 kts 178°
2026-04-25 19:25 38.78872 -76.87153 1487 ft 188 kts 176°
2026-04-25 19:26 38.77525 -76.87199 2342 ft 202 kts 176°
2026-04-25 19:26 38.76038 -76.87243 3366 ft 231 kts 178°
2026-04-25 19:26 38.74416 -76.87290 4613 ft 247 kts 181°
2026-04-25 19:26 38.72757 -76.87341 5871 ft 237 kts 183°
2026-04-25 19:27 38.71147 -76.87392 6988 ft 232 kts 185°
2026-04-25 19:27 38.70614 -76.87411 7354 ft 234 kts 185°
2026-04-25 19:27 38.67886 -76.87504 9217 ft 242 kts 186°
2026-04-25 19:27 38.66221 -76.87556 10340 ft 244 kts 186°
2026-04-25 19:28 38.64527 -76.87612 11446 ft 249 kts 186°
2026-04-25 19:28 38.62818 -76.87666 12524 ft 251 kts 186°
2026-04-25 19:28 38.61158 -76.88120 13483 ft 246 kts 213°
2026-04-25 19:28 38.59882 -76.89630 14043 ft 258 kts 244°
2026-04-25 19:29 38.59378 -76.91834 14795 ft 268 kts 264°
2026-04-25 19:29 38.59185 -76.94197 15773 ft 274 kts 265°
2026-04-25 19:29 38.58998 -76.96638 16742 ft 279 kts 265°
2026-04-25 19:29 38.58802 -76.99065 17790 ft 278 kts 264°
2026-04-25 19:30 38.58606 -77.01421 18974 ft 268 kts 264°
2026-04-25 19:30 38.58413 -77.03698 20197 ft 254 kts 264°
2026-04-25 19:30 38.58221 -77.05943 20967 ft 256 kts 263°
2026-04-25 19:30 38.58026 -77.08195 21704 ft 258 kts 263°
2026-04-25 19:31 38.57833 -77.10440 22431 ft 258 kts 263°
2026-04-25 19:31 38.57779 -77.12723 23110 ft 259 kts 280°
2026-04-25 19:31 38.58561 -77.14816 23675 ft 271 kts 308°
2026-04-25 19:31 38.60138 -77.16181 24240 ft 288 kts 335°
2026-04-25 19:32 38.62100 -77.16843 24796 ft 296 kts 340°
2026-04-25 19:32 38.64132 -77.17400 25315 ft 299 kts 340°
2026-04-25 19:32 38.66210 -77.18006 25582 ft 312 kts 340°
2026-04-25 19:32 38.66905 -77.18215 25677 ft 316 kts 340°
2026-04-25 19:33 38.70612 -77.19355 26141 ft 339 kts 340°
2026-04-25 19:33 38.72946 -77.20084 26407 ft 354 kts 340°
2026-04-25 19:33 38.75393 -77.20854 26663 ft 368 kts 340°
2026-04-25 19:33 38.77852 -77.21624 26915 ft 383 kts 341°
2026-04-25 19:34 38.80492 -77.22442 27177 ft 398 kts 340°
2026-04-25 19:34 38.83228 -77.23288 27435 ft 412 kts 340°
2026-04-25 19:34 38.86019 -77.24394 27672 ft 421 kts 330°
2026-04-25 19:34 38.88585 -77.26344 27933 ft 426 kts 317°
2026-04-25 19:35 38.90708 -77.29044 28188 ft 433 kts 304°
2026-04-25 19:35 38.92291 -77.32362 28441 ft 440 kts 291°
2026-04-25 19:35 38.93235 -77.36088 28677 ft 447 kts 279°
2026-04-25 19:35 38.93548 -77.40141 28935 ft 458 kts 270°
2026-04-25 19:36 38.93572 -77.44258 29174 ft 470 kts 269°
2026-04-25 19:36 38.93573 -77.48540 29425 ft 480 kts 269°
2026-04-25 19:36 38.93628 -77.52853 29680 ft 488 kts 270°
2026-04-25 19:36 38.93744 -77.57259 29940 ft 492 kts 271°
2026-04-25 19:37 38.93900 -77.61653 30190 ft 492 kts 271°
2026-04-25 19:37 38.94081 -77.66048 30450 ft 492 kts 271°
2026-04-25 19:37 38.94253 -77.70434 30712 ft 491 kts 271°
2026-04-25 19:37 38.94420 -77.74749 30965 ft 490 kts 271°
2026-04-25 19:38 38.94596 -77.79159 31227 ft 488 kts 271°
2026-04-25 19:38 38.94774 -77.83463 31487 ft 487 kts 271°
2026-04-25 19:38 38.94949 -77.87848 31752 ft 486 kts 271°
2026-04-25 19:38 38.95103 -77.92176 31912 ft 486 kts 270°
2026-04-25 19:39 38.95394 -78.00867 31955 ft 486 kts 271°
2026-04-25 19:39 38.95681 -78.09516 31984 ft 479 kts 271°
2026-04-25 19:40 38.95822 -78.13701 31975 ft 465 kts 271°
2026-04-25 19:40 38.95957 -78.17737 31973 ft 452 kts 270°
2026-04-25 19:40 38.96316 -78.25785 31982 ft 452 kts 272°
2026-04-25 19:41 38.96914 -78.33888 31979 ft 456 kts 274°
2026-04-25 19:41 38.97321 -78.39328 31971 ft 457 kts 273°
2026-04-25 19:42 38.98097 -78.50136 31933 ft 454 kts 273°
2026-04-25 19:42 38.98660 -78.58244 31924 ft 455 kts 273°
2026-04-25 19:43 38.99212 -78.66341 31919 ft 453 kts 272°
2026-04-25 19:43 38.99720 -78.74486 31930 ft 455 kts 272°
2026-04-25 19:44 39.00234 -78.82587 31938 ft 455 kts 272°
2026-04-25 19:44 39.00764 -78.90726 31922 ft 457 kts 272°
2026-04-25 19:45 39.01294 -78.98845 31937 ft 456 kts 272°
2026-04-25 19:45 39.01814 -79.06882 31930 ft 459 kts 272°
2026-04-25 19:46 39.02326 -79.14885 31943 ft 453 kts 272°
2026-04-25 19:46 39.02837 -79.22908 31944 ft 454 kts 272°
2026-04-25 19:47 39.03342 -79.30942 31947 ft 456 kts 271°
2026-04-25 19:47 39.03838 -79.38886 31924 ft 451 kts 271°
2026-04-25 19:48 39.04325 -79.46879 31948 ft 455 kts 271°
2026-04-25 19:48 39.04780 -79.54408 31943 ft 459 kts 271°